SINOD-D 3

Last updated on Mon Sep 21 2026 00:03:44 GMT+0000 (Coordinated Universal Time)

1 40977U 15058P 26263.47421612 .00001437 00000+0 12754-3 0 9998 2 40977 64.7724 338.1168 0127279 21.9919 338.6588 14.94583410128997
UTC large
Height (km)
Speed (km/s)
/
Latitude / Longitude
Inclination (degrees)
Orbital Period (minutes)
Azimuth
Elevation
Range (km)
Doppler Factor

Next 0 passes for location: London (51.5072 / 0.1276)

No passes found over London.
SINOD-D 3